Weather History for Colby, KS

Change the Weather History Date:

Saturday, December 14, 2013

  Actual Average (KGLD) Record (KGLD)
Temperature  
Mean Temperature 34 °F 30 °F  
Max Temperature 48 °F 42 °F 66 °F (1962)
Min Temperature 21 °F 17 °F -16 °F (1963)
Degree Days  
Heating Degree Days 30 35  
Month to date heating degree days 480  
Since 1 July heating degree days 1799  
Cooling Degree Days 0 0  
Month to date cooling degree days 0  
Year to date cooling degree days 941  
Moisture  
Dew Point 24 °F    
Average Humidity 76    
Maximum Humidity 100    
Minimum Humidity 40    
Precipitation  
Precipitation 0.00 in 0.02 in 0.41 in (1907)
Month to date precipitation 0.22  
Year to date precipitation 19.42  
Snow  
Snow 0.00 in 0.10 in - ()
Month to date snowfall 2.4  
Since 1 July snowfall 9.6  
Snow Depth -    
Sea Level Pressure  
Sea Level Pressure 30.17 in    
Wind  
Wind Speed 12 mph (NW)    
Max Wind Speed 23 mph    
Max Gust Speed 28 mph    
Visibility 10 miles    
Events      
T = Trace of Precipitation, MM = Missing Value Source: NWS Daily Summary

Daily Weather History Graph

Daily Weather History Graph

Search for Another Location

Airport:

Trip Planner

Search our weather history database for the weather conditions in past years. The results will help you decide how hot, cold, wet, or windy it might be!

Date:

Astronomy

Dec. 14, 2013 Rise Set
Actual Time 7:56 AM CST 5:21 PM CST
Civil Twilight 7:26 AM CST 5:51 PM CST
Nautical Twilight 6:52 AM CST 6:25 PM CST
Astronomical Twilight 6:20 AM CST 6:58 PM CST
Moon 3:44 PM CST (12/14) 5:19 AM CST (12/14)
Length of Visible Light 10h 25m
Length of Day
9h 24m
Waxing Gibbous, 94% of the Moon is Illuminated
Dec 14
Waxing Gibbous
Dec 17
Full
Dec 25
Last Quarter
Jan 1
New
Jan 7
First Quarter

Hourly Weather History & Observations

Time (CST) Temp. Windchill Dew Point Humidity Pressure Visibility Wind Dir Wind Speed Gust Speed Precip Events Conditions
12:15 AM 23.0 °F 12.4 °F 21.2 °F 93% 30.07 in 10.0 mi NNW 10.4 mph - N/A   Mostly Cloudy
12:35 AM 24.8 °F 11.9 °F 23.0 °F 93% 30.07 in 10.0 mi NNW 16.1 mph - N/A   Overcast
12:55 AM 26.6 °F 14.7 °F 23.0 °F 86% 30.08 in 10.0 mi NNW 15.0 mph - N/A   Overcast
1:15 AM 26.6 °F 15.7 °F 23.0 °F 86% 30.08 in 10.0 mi NNW 12.7 mph - N/A   Mostly Cloudy
1:35 AM 26.6 °F 14.3 °F 23.0 °F 86% 30.08 in 10.0 mi NNW 16.1 mph 24.2 mph N/A   Scattered Clouds
1:55 AM 24.8 °F 12.9 °F 23.0 °F 93% 30.09 in 10.0 mi NNW 13.8 mph - N/A   Clear
2:15 AM 23.0 °F 12.4 °F 21.2 °F 93% 30.10 in 10.0 mi NNW 10.4 mph - N/A   Clear
2:35 AM 23.0 °F 12.4 °F 21.2 °F 93% 30.11 in 10.0 mi NNW 10.4 mph - N/A   Clear
2:55 AM 23.0 °F 11.7 °F 21.2 °F 93% 30.12 in 10.0 mi NNW 11.5 mph - N/A   Clear
3:15 AM 23.0 °F 10.6 °F 21.2 °F 93% 30.13 in 10.0 mi NNW 13.8 mph - N/A   Clear
3:35 AM 23.0 °F 10.1 °F 21.2 °F 93% 30.12 in 10.0 mi NW 15.0 mph - N/A   Scattered Clouds
3:55 AM 23.0 °F 11.7 °F 21.2 °F 93% 30.13 in 10.0 mi NNW 11.5 mph - N/A   Mostly Cloudy
4:15 AM 23.0 °F 11.7 °F 23.0 °F 100% 30.14 in 10.0 mi NW 11.5 mph - N/A   Overcast
4:35 AM 26.6 °F 15.2 °F 23.0 °F 86% 30.14 in 10.0 mi NNW 13.8 mph 18.4 mph N/A   Overcast
4:55 AM 26.6 °F 16.8 °F 23.0 °F 86% 30.14 in 10.0 mi NNW 10.4 mph - N/A   Mostly Cloudy
5:15 AM 23.0 °F 13.9 °F 21.2 °F 93% 30.14 in 10.0 mi NW 8.1 mph - N/A   Clear
5:35 AM 21.2 °F 11.7 °F 21.2 °F 100% 30.15 in 10.0 mi NW 8.1 mph - N/A   Clear
5:55 AM 23.0 °F 12.4 °F 23.0 °F 100% 30.17 in 10.0 mi NW 10.4 mph - N/A   Clear
6:15 AM 24.8 °F 12.9 °F 24.8 °F 100% 30.17 in 10.0 mi NW 13.8 mph - N/A   Clear
6:35 AM 23.0 °F 11.1 °F 23.0 °F 100% 30.18 in 10.0 mi NW 12.7 mph - N/A   Clear
6:55 AM 23.0 °F 11.7 °F 23.0 °F 100% 30.18 in 10.0 mi NW 11.5 mph - N/A   Clear
7:15 AM 23.0 °F 12.4 °F 23.0 °F 100% 30.18 in 10.0 mi NW 10.4 mph - N/A   Clear
7:35 AM 23.0 °F 11.1 °F 23.0 °F 100% 30.19 in 10.0 mi WNW 12.7 mph - N/A   Clear
7:55 AM 21.2 °F 8.9 °F 21.2 °F 100% 30.20 in 10.0 mi WNW 12.7 mph - N/A   Clear
8:15 AM 23.0 °F 12.4 °F 23.0 °F 100% 30.20 in 10.0 mi WNW 10.4 mph - N/A   Mostly Cloudy
8:35 AM 26.6 °F 16.8 °F 26.6 °F 100% 30.20 in 10.0 mi WNW 10.4 mph - N/A   Mostly Cloudy
8:55 AM 28.4 °F 18.5 °F 28.4 °F 100% 30.21 in 10.0 mi WNW 11.5 mph - N/A   Scattered Clouds
9:15 AM 30.2 °F 20.8 °F 28.4 °F 93% 30.21 in 10.0 mi WNW 11.5 mph - N/A   Clear
9:35 AM 33.8 °F 25.3 °F 32.0 °F 93% 30.23 in 10.0 mi WNW 11.5 mph - N/A   Clear
9:55 AM 33.8 °F 24.8 °F 32.0 °F 93% 30.23 in 10.0 mi WNW 12.7 mph 17.3 mph N/A   Clear
10:15 AM 35.6 °F 25.9 °F 32.0 °F 87% 30.23 in 10.0 mi WNW 16.1 mph - N/A   Clear
10:35 AM 37.4 °F 28.9 °F 32.0 °F 81% 30.23 in 10.0 mi WNW 13.8 mph 18.4 mph N/A   Clear
10:55 AM 41.0 °F 33.1 °F 32.0 °F 70% 30.23 in 10.0 mi NW 15.0 mph 20.7 mph N/A   Clear
11:15 AM 41.0 °F 32.5 °F 32.0 °F 70% 30.23 in 10.0 mi NW 17.3 mph - N/A   Clear
11:35 AM 42.8 °F 34.5 °F 32.0 °F 66% 30.22 in 10.0 mi NNW 18.4 mph 25.3 mph N/A   Clear
11:55 AM 44.6 °F 36.9 °F 30.2 °F 57% 30.21 in 10.0 mi NNW 18.4 mph 24.2 mph N/A   Clear
12:15 PM 44.6 °F 36.6 °F 30.2 °F 57% 30.21 in 10.0 mi NNW 19.6 mph 26.5 mph N/A   Clear
12:35 PM 46.4 °F 38.7 °F 28.4 °F 50% 30.20 in 10.0 mi NNW 20.7 mph 27.6 mph N/A   Clear
12:55 PM 46.4 °F 40.4 °F 30.2 °F 53% 30.19 in 10.0 mi NW 13.8 mph 21.9 mph N/A   Clear
1:15 PM 46.4 °F 38.3 °F 28.4 °F 50% 30.18 in 10.0 mi NNW 23.0 mph 27.6 mph N/A   Scattered Clouds
1:35 PM 46.4 °F 39.5 °F 28.4 °F 50% 30.18 in 10.0 mi NW 17.3 mph 26.5 mph N/A   Clear
1:55 PM 46.4 °F 39.0 °F 28.4 °F 50% 30.17 in 10.0 mi NW 19.6 mph 23.0 mph N/A   Clear
2:15 PM 46.4 °F 40.4 °F 28.4 °F 50% 30.17 in 10.0 mi NNW 13.8 mph 23.0 mph N/A   Clear
2:35 PM 48.2 °F - 26.6 °F 43% 30.17 in 10.0 mi NW 18.4 mph 24.2 mph N/A   Clear
2:55 PM 48.2 °F - 26.6 °F 43% 30.17 in 10.0 mi NW 17.3 mph 24.2 mph N/A   Clear
3:15 PM 48.2 °F - 26.6 °F 43% 30.17 in 10.0 mi NNW 13.8 mph 24.2 mph N/A   Clear
3:35 PM 48.2 °F - 26.6 °F 43% 30.18 in 10.0 mi NW 10.4 mph 19.6 mph N/A   Clear
3:55 PM 46.4 °F 40.4 °F 26.6 °F 46% 30.18 in 10.0 mi NW 13.8 mph 19.6 mph N/A   Clear
4:15 PM 46.4 °F 41.1 °F 24.8 °F 43% 30.18 in 10.0 mi NNW 11.5 mph 17.3 mph N/A   Clear
4:35 PM 46.4 °F 42.4 °F 23.0 °F 40% 30.18 in 10.0 mi NNW 8.1 mph - N/A   Clear
4:55 PM 42.8 °F 39.3 °F 23.0 °F 46% 30.18 in 10.0 mi NNW 5.8 mph - N/A   Clear
5:15 PM 37.4 °F 32.1 °F 21.2 °F 52% 30.18 in 10.0 mi NNW 6.9 mph - N/A   Clear
5:35 PM 37.4 °F 32.1 °F 23.0 °F 56% 30.18 in 10.0 mi NW 6.9 mph - N/A   Clear
5:55 PM 37.4 °F 32.8 °F 23.0 °F 56% 30.18 in 10.0 mi NW 5.8 mph - N/A   Clear
6:15 PM 35.6 °F 32.8 °F 23.0 °F 60% 30.18 in 10.0 mi WNW 3.5 mph - N/A   Clear
6:35 PM 35.6 °F 30.7 °F 21.2 °F 56% 30.18 in 10.0 mi WSW 5.8 mph - N/A   Clear
6:55 PM 28.4 °F 23.3 °F 19.4 °F 69% 30.18 in 10.0 mi West 4.6 mph - N/A   Clear
7:15 PM 26.6 °F 19.1 °F 15.8 °F 64% 30.18 in 10.0 mi SW 6.9 mph - N/A   Clear
7:35 PM 26.6 °F 19.1 °F 17.6 °F 69% 30.19 in 10.0 mi WSW 6.9 mph - N/A   Clear
7:55 PM 23.0 °F 15.8 °F 15.8 °F 74% 30.18 in 10.0 mi WSW 5.8 mph - N/A   Clear
8:15 PM 23.0 °F 13.9 °F 17.6 °F 80% 30.18 in 10.0 mi WSW 8.1 mph - N/A   Clear
8:35 PM 23.0 °F 14.7 °F 17.6 °F 80% 30.18 in 10.0 mi WSW 6.9 mph - N/A   Clear
8:55 PM 23.0 °F 14.7 °F 17.6 °F 80% 30.18 in 10.0 mi WSW 6.9 mph - N/A   Clear
9:15 PM 23.0 °F 13.9 °F 17.6 °F 80% 30.18 in 10.0 mi West 8.1 mph - N/A   Clear
9:35 PM 23.0 °F 13.9 °F 17.6 °F 80% 30.18 in 10.0 mi WSW 8.1 mph - N/A   Clear
9:55 PM 24.8 °F 17.9 °F 19.4 °F 80% 30.18 in 10.0 mi West 5.8 mph - N/A   Clear
10:15 PM 23.0 °F 14.7 °F 17.6 °F 80% 30.18 in 10.0 mi WSW 6.9 mph - N/A   Clear
10:35 PM 23.0 °F 14.7 °F 17.6 °F 80% 30.18 in 10.0 mi WSW 6.9 mph - N/A   Clear
10:55 PM 24.8 °F 16.1 °F 19.4 °F 80% 30.18 in 10.0 mi WSW 8.1 mph - N/A   Clear
11:15 PM 24.8 °F 17.9 °F 19.4 °F 80% 30.18 in 10.0 mi West 5.8 mph - N/A   Clear
11:35 PM 24.8 °F 16.9 °F 19.4 °F 80% 30.18 in 10.0 mi West 6.9 mph - N/A   Clear
11:55 PM 24.8 °F 16.1 °F 19.4 °F 80% 30.17 in 10.0 mi West 8.1 mph - N/A   Clear